Date,TemperatureHighF,TemperatureAvgF,TemperatureLowF,DewpointHighF,DewpointAvgF,DewpointLowF,HumidityHigh,HumidityAvg,HumidityLow,PressureMaxIn,PressureMinIn,WindSpeedMaxMPH,WindSpeedAvgMPH,GustSpeedMaxMPH,PrecipitationSumIn
2013-1-1,56,50,43,24,19,12,42,30,20,30.28,30.18,18,2,24,0.00
2013-1-2,64,54,45,14,12,10,25,19,12,30.23,30.06,31,6,33,0.00
2013-1-3,64,56,48,13,7,0,21,14,9,30.22,30.07,39,10,50,0.00
2013-1-4,61,52,45,10,5,0,20,15,9,30.32,30.21,16,3,17,0.00
2013-1-5,62,52,43,12,8,5,22,17,11,30.35,30.18,14,3,17,0.00
2013-1-6,60,52,44,37,25,8,59,37,18,30.17,29.97,57,13,59,0.00
2013-1-7,65,56,47,37,22,11,61,29,15,30.05,29.94,46,8,62,0.00
2013-1-8,77,67,55,32,27,12,30,22,14,30.09,29.96,41,14,57,0.00
2013-1-9,71,64,57,35,30,28,34,29,23,30.14,29.90,15,3,21,0.00
2013-1-10,59,53,44,42,32,17,60,46,30,30.00,29.77,76,19,76,0.00
2013-1-11,54,47,41,23,16,10,40,29,19,30.13,30.00,30,10,38,0.00
2013-1-12,53,45,38,28,16,9,58,31,17,30.17,30.03,27,3,48,0.00
2013-1-13,52,44,37,13,8,1,31,23,17,30.19,30.05,37,6,50,0.00
2013-1-14,49,42,36,3,-4,-10,22,15,8,30.40,30.18,53,19,65,0.00
2013-1-15,54,46,38,16,9,-3,28,22,15,30.51,30.38,27,5,50,0.00
2013-1-16,65,54,42,23,18,11,31,24,19,30.44,30.26,23,5,40,0.00
2013-1-17,72,63,54,18,14,11,23,15,10,30.29,30.15,27,8,33,0.00
2013-1-18,74,63,52,19,15,12,23,15,11,30.22,30.10,24,4,27,0.00
2013-1-19,74,65,56,15,12,7,17,13,9,30.24,30.11,23,5,24,0.00
2013-1-20,76,66,57,12,6,2,15,10,6,30.16,30.03,24,6,28,0.00
2013-1-21,78,67,59,8,3,-3,11,8,5,30.14,30.02,32,6,35,0.00
2013-1-22,77,66,54,13,6,-2,14,10,6,30.14,30.04,13,4,18,0.00
2013-1-23,75,68,61,29,19,12,24,15,11,30.12,30.02,13,3,16,0.00
2013-1-24,68,64,60,46,38,27,58,40,23,30.19,30.02,21,3,27,0.00
2013-1-25,61,58,56,56,54,46,95,85,61,30.17,29.96,16,2,23,0.38
2013-1-26,64,59,56,58,56,54,96,90,80,29.97,29.85,15,2,22,0.14
2013-1-27,63,56,49,57,47,33,97,74,45,29.95,29.85,44,11,56,0.00
2013-1-28,58,51,44,38,29,20,74,44,24,30.12,29.92,37,14,46,0.00
2013-1-29,61,52,44,39,32,24,66,46,35,30.23,30.06,33,8,42,0.00
2013-1-30,66,56,47,37,35,32,64,46,30,30.35,30.22,18,2,22,0.00
2013-1-31,73,61,50,41,36,33,56,41,24,30.25,30.11,14,1,19,0.00
2013-2-1,73,64,55,39,34,31,44,33,22,30.18,30.10,14,3,18,0.00
2013-2-2,75,66,60,41,34,31,41,31,21,30.22,30.10,9,1,14,0.00
2013-2-3,74,67,61,44,40,36,53,38,31,30.10,29.94,25,4,39,0.00
2013-2-4,78,69,57,37,32,22,43,27,16,30.03,29.90,22,4,25,0.00
2013-2-5,76,67,59,38,30,22,36,25,19,29.98,29.84,34,7,36,0.00
2013-2-6,75,63,53,43,38,22,62,42,15,30.02,29.83,43,15,49,0.00
2013-2-7,70,62,54,44,27,15,57,29,15,30.05,29.84,34,8,49,0.00
2013-2-8,54,49,44,38,34,28,77,56,42,29.91,29.83,52,21,66,0.00
2013-2-9,56,49,43,32,30,27,64,48,37,30.04,29.85,47,18,56,0.00
2013-2-10,60,51,44,33,30,27,52,45,31,30.04,29.94,34,16,44,0.00
2013-2-11,59,52,45,33,16,3,56,27,11,30.23,30.00,42,14,59,0.00
2013-2-12,64,55,46,17,12,6,27,18,13,30.33,30.20,21,6,26,0.00
2013-2-13,72,60,47,26,20,14,30,22,15,30.24,30.08,25,4,39,0.00
2013-2-14,75,65,56,27,24,21,28,21,14,30.18,30.06,32,7,43,0.00
2013-2-15,77,67,58,25,19,12,27,17,10,30.26,30.15,27,8,37,0.00
2013-2-16,76,67,57,19,13,9,18,13,8,30.22,29.93,19,5,22,0.00
2013-2-17,76,66,57,34,20,10,32,18,9,29.93,29.79,42,12,49,0.00
2013-2-18,73,63,54,40,26,19,58,25,17,29.98,29.83,23,6,27,0.00
2013-2-19,58,52,47,40,36,32,63,55,42,29.84,29.63,61,28,68,0.00
2013-2-20,56,49,41,40,33,28,88,56,40,29.92,29.62,50,20,59,0.13
2013-2-21,59,52,46,33,26,13,58,38,19,30.06,29.92,38,12,44,0.00
2013-2-22,67,56,44,31,19,13,44,24,14,30.17,30.06,14,4,31,0.00
2013-2-23,70,59,50,35,29,13,49,33,18,30.13,29.77,60,14,69,0.00
2013-2-24,63,55,48,13,4,-3,18,13,7,30.18,29.93,65,13,75,0.00
2013-2-25,66,57,46,27,12,5,33,17,11,30.23,30.02,32,4,33,0.00
2013-2-26,70,60,48,27,13,-2,39,19,6,30.16,29.97,36,8,46,0.00
2013-2-27,69,60,51,13,7,0,19,12,7,30.30,30.16,34,8,46,0.00
2013-2-28,76,65,53,12,8,4,14,11,7,30.34,30.24,19,6,24,0.00
2013-3-1,82,71,58,23,16,10,18,13,9,30.33,30.16,18,5,28,0.00
2013-3-2,82,72,61,29,25,21,24,17,13,30.22,30.00,22,6,29,0.00
2013-3-3,80,71,61,37,28,20,40,21,14,30.00,29.79,56,20,67,0.00
2013-3-4,76,66,55,43,40,34,59,39,26,30.00,29.85,60,16,62,0.00
2013-3-5,76,66,58,44,38,32,61,37,24,30.03,29.89,42,10,46,0.00
2013-3-6,69,61,53,44,39,36,60,46,33,30.00,29.86,59,29,67,0.00
2013-3-7,63,58,52,43,39,31,57,49,39,29.91,29.81,46,18,57,0.00
2013-3-8,57,52,45,44,37,32,85,59,40,29.94,29.73,56,18,58,0.12
2013-3-9,66,57,49,42,39,36,64,52,35,30.13,29.92,39,20,51,0.00
2013-3-10,75,65,52,39,21,12,61,22,9,30.24,30.09,39,10,48,0.00
2013-3-11,81,70,60,26,17,12,21,13,8,30.15,29.96,17,4,24,0.00
2013-3-12,86,74,61,30,23,18,22,15,10,30.05,29.93,19,4,21,0.00
2013-3-13,92,80,68,35,27,23,21,15,9,30.08,29.93,17,4,28,0.00
2013-3-14,94,80,71,34,30,26,20,16,10,30.03,29.88,24,5,24,0.00
2013-3-15,93,83,75,41,34,30,23,18,12,29.93,29.76,41,10,51,0.00
2013-3-16,90,80,72,44,30,19,32,17,10,29.77,29.65,51,22,56,0.00
2013-3-17,88,76,67,43,35,21,36,23,9,29.85,29.70,50,17,52,0.00
2013-3-18,84,71,57,46,42,29,67,37,17,29.92,29.78,36,15,50,0.00
2013-3-19,84,74,65,47,41,35,49,31,18,29.96,29.85,48,20,50,0.00
2013-3-20,84,74,67,45,38,29,39,28,15,29.95,29.77,49,17,57,0.00
2013-3-21,86,73,60,47,41,30,55,34,14,29.78,29.64,59,21,59,0.00
2013-3-22,84,72,58,48,33,9,54,29,6,29.76,29.62,56,19,64,0.00
2013-3-23,80,70,62,39,11,-4,38,12,4,29.97,29.75,43,8,47,0.00
2013-3-24,80,69,57,19,13,8,18,12,7,29.99,29.83,20,4,24,0.00
2013-3-25,82,72,62,40,18,12,31,13,9,29.93,29.80,28,7,36,0.00
2013-3-26,85,74,66,41,33,22,34,23,10,29.85,29.71,46,14,56,0.00
2013-3-27,82,72,63,46,38,31,46,30,19,29.88,29.76,48,19,59,0.00
2013-3-28,83,73,63,43,38,35,45,29,19,29.96,29.85,44,12,59,0.00
2013-3-29,84,76,66,49,40,35,41,28,21,30.01,29.91,27,7,34,0.00
2013-3-30,87,77,69,48,42,34,42,29,17,29.98,29.85,50,16,57,0.00
2013-3-31,80,70,61,49,41,31,55,35,22,29.96,29.85,56,27,65,0.00
2013-4-1,74,65,58,46,42,38,58,45,28,30.00,29.89,56,30,66,0.00
2013-4-2,84,70,58,46,40,30,59,36,16,29.98,29.83,48,19,49,0.00
2013-4-3,90,78,66,45,35,29,37,22,13,29.99,29.85,25,7,28,0.00
2013-4-4,88,77,70,44,38,27,36,25,12,29.93,29.81,50,18,61,0.00
2013-4-5,81,71,64,50,46,38,55,41,23,29.92,29.80,59,29,66,0.00
2013-4-6,84,71,60,51,47,39,64,45,23,29.92,29.77,53,23,55,0.00
2013-4-7,86,72,61,50,46,36,65,42,19,29.84,29.62,49,16,55,0.00
2013-4-8,69,63,57,49,41,35,63,45,35,29.67,29.47,69,34,80,0.00
2013-4-9,76,66,54,35,21,-1,47,22,5,29.93,29.66,52,23,63,0.00
2013-4-10,85,73,62,26,15,-6,21,12,3,30.06,29.86,58,13,58,0.00
2013-4-11,86,74,64,42,30,20,37,20,13,29.91,29.61,38,10,46,0.00
2013-4-12,87,75,61,44,37,27,47,28,14,29.75,29.64,28,5,31,0.00
2013-4-13,89,77,66,49,39,30,42,26,14,29.75,29.59,56,15,75,0.00
2013-4-14,71,64,59,48,45,40,65,50,39,29.68,29.56,67,34,78,0.00
2013-4-15,71,62,56,46,44,41,69,53,38,29.72,29.61,68,37,88,0.00
2013-4-16,69,59,52,42,36,29,57,43,27,29.88,29.67,70,30,82,0.00
2013-4-17,73,62,53,29,16,2,38,20,6,30.10,29.88,43,17,54,0.00
2013-4-18,76,66,56,14,6,-2,16,10,5,30.24,30.08,32,7,38,0.00
2013-4-19,85,72,61,16,7,1,11,8,6,30.15,29.90,21,6,25,0.00
2013-4-20,90,78,64,28,22,14,17,13,9,29.91,29.78,24,5,30,0.00
2013-4-21,91,82,71,37,29,23,22,15,9,29.91,29.79,27,7,32,0.00
2013-4-22,92,79,69,43,37,30,35,23,12,29.84,29.65,52,17,57,0.00
2013-4-23,89,78,61,46,25,8,58,19,6,29.86,29.67,43,13,53,0.00
2013-4-24,86,74,62,50,29,15,59,23,7,29.83,29.69,48,13,56,0.00
2013-4-25,78,67,58,47,45,44,62,46,30,29.95,29.74,70,30,71,0.00
2013-4-26,88,75,62,48,43,33,55,34,14,30.07,29.95,36,11,39,0.00
2013-4-27,99,86,70,44,24,2,34,13,3,30.01,29.82,34,10,56,0.00
2013-4-28,101,89,78,34,23,11,15,10,4,29.84,29.65,47,14,56,0.00
2013-4-29,101,87,73,49,34,20,32,17,6,29.69,29.54,50,21,56,0.00
2013-4-30,92,80,64,51,42,31,62,28,14,29.65,29.56,57,22,60,0.00
2013-5-1,92,79,62,51,14,-29,65,22,1,30.02,29.65,48,19,58,0.00
2013-5-2,88,79,68,1,-10,-28,6,3,1,30.20,29.97,39,10,47,0.00
2013-5-3,92,84,71,20,2,-10,10,4,3,29.98,29.70,26,6,33,0.00
2013-5-4,94,81,71,41,19,6,31,12,4,29.70,29.52,49,18,57,0.00
2013-5-5,77,68,61,48,41,28,61,38,20,29.81,29.63,55,25,65,0.00
2013-5-6,76,66,60,50,46,40,61,48,34,29.93,29.80,42,18,52,0.00
2013-5-7,74,65,58,46,43,39,56,45,29,29.97,29.86,53,22,63,0.00
2013-5-8,80,68,59,48,44,38,58,43,24,29.99,29.89,47,20,54,0.00
2013-5-9,84,71,62,51,46,44,55,42,25,29.95,29.86,47,20,57,0.00
2013-5-10,94,80,64,52,46,36,59,33,14,29.99,29.85,38,14,49,0.00
2013-5-11,100,88,73,49,37,26,35,18,8,29.96,29.86,28,7,46,0.00
2013-5-12,101,91,78,40,34,30,19,14,9,29.97,29.81,31,6,46,0.00
2013-5-13,104,94,81,41,36,29,19,13,8,29.88,29.73,32,9,37,0.00
2013-5-14,103,91,79,41,30,16,21,12,5,29.79,29.68,67,24,67,0.00
2013-5-15,93,82,72,50,38,25,34,22,12,29.84,29.71,58,23,61,0.00
2013-5-16,92,80,70,53,46,35,55,33,14,29.76,29.64,56,22,65,0.00
2013-5-17,84,73,66,52,49,44,59,44,25,29.82,29.69,64,27,65,0.00
2013-5-18,89,75,63,52,49,43,63,42,22,29.89,29.77,48,22,67,0.00
2013-5-19,97,81,67,52,46,31,54,32,10,29.84,29.69,48,16,48,0.00
2013-5-20,96,86,74,48,28,8,40,15,5,29.88,29.74,35,11,44,0.00
2013-5-21,99,87,76,45,26,9,23,12,6,29.80,29.61,49,13,59,0.00
2013-5-22,94,82,66,47,36,22,50,22,8,29.66,29.54,52,23,62,0.00
2013-5-23,86,73,63,48,42,25,52,35,11,29.75,29.61,56,26,63,0.00
2013-5-24,89,74,61,47,41,30,58,34,13,29.85,29.73,44,20,52,0.00
2013-5-25,88,75,62,46,36,16,49,28,9,29.85,29.76,56,22,59,0.00
2013-5-26,87,76,67,50,41,32,46,30,15,29.87,29.77,53,28,66,0.00
2013-5-27,92,78,64,54,47,41,58,36,19,29.81,29.65,54,22,60,0.00
2013-5-28,86,76,70,55,52,48,54,43,30,29.67,29.55,57,30,67,0.00
2013-5-29,97,82,69,52,47,41,49,31,15,29.68,29.53,54,16,63,0.00
2013-5-30,95,83,71,56,52,47,49,35,20,29.73,29.59,42,11,44,0.00
2013-5-31,98,84,70,56,52,46,55,36,18,29.79,29.67,24,8,28,0.00
2013-6-1,105,93,79,55,39,24,39,18,6,29.73,29.58,18,4,26,0.00
2013-6-2,103,90,81,51,43,35,33,20,10,29.63,29.51,43,13,56,0.00
2013-6-3,98,84,72,52,44,38,41,26,14,29.68,29.55,42,17,46,0.00
2013-6-4,97,83,69,53,46,31,54,32,11,29.75,29.66,56,20,63,0.00
2013-6-5,101,86,72,52,42,30,44,24,9,29.78,29.67,50,19,55,0.00
2013-6-6,104,91,79,50,41,30,28,19,9,29.70,29.60,48,20,56,0.00
2013-6-7,109,94,80,53,40,26,30,17,7,29.66,29.55,38,12,47,0.00
2013-6-8,101,90,80,57,51,37,40,28,14,29.71,29.56,22,6,25,0.00
2013-6-9,98,87,76,59,48,15,42,29,7,29.77,29.67,26,5,34,0.00
2013-6-10,98,86,75,49,37,24,32,19,9,29.75,29.67,48,14,63,0.00
2013-6-11,104,89,72,55,38,25,44,20,7,29.79,29.69,34,12,43,0.00
2013-6-12,102,90,78,53,45,29,38,22,12,29.79,29.69,46,13,53,0.00
2013-6-13,102,89,74,51,40,28,42,20,9,29.81,29.67,54,18,56,0.00
2013-6-14,101,87,74,48,39,25,32,20,7,29.75,29.61,38,11,54,0.00
2013-6-15,100,85,70,49,33,7,40,20,4,29.76,29.66,44,16,52,0.00
2013-6-16,102,86,70,50,35,4,45,20,3,29.83,29.73,45,18,53,0.00
2013-6-17,103,89,75,51,39,24,32,19,7,29.79,29.68,48,15,56,0.00
2013-6-18,101,89,78,50,40,28,31,19,9,29.71,29.59,57,22,64,0.00
2013-6-19,98,87,73,52,38,26,34,20,9,29.66,29.57,52,21,57,0.00
2013-6-20,99,86,74,49,41,31,34,22,10,29.69,29.59,49,17,56,0.00
2013-6-21,98,86,76,50,41,33,34,22,11,29.73,29.62,48,21,55,0.00
2013-6-22,100,86,73,53,44,36,38,25,12,29.73,29.60,48,22,59,0.00
2013-6-23,96,84,73,52,48,41,44,30,15,29.66,29.56,52,23,61,0.00
2013-6-24,91,78,66,56,51,45,61,40,25,29.74,29.59,55,28,60,0.00
2013-6-25,99,84,70,57,55,52,61,39,23,29.82,29.70,51,20,56,0.00
2013-6-26,101,91,80,60,57,53,43,32,21,29.86,29.76,30,8,33,0.00
2013-6-27,106,94,80,59,56,53,43,30,19,29.91,29.78,44,10,51,0.00
2013-6-28,113,101,88,56,48,38,28,18,9,29.82,29.65,55,19,56,0.00
2013-6-29,119,106,93,62,44,34,34,14,6,29.68,29.55,44,13,52,0.00
2013-6-30,110,98,87,63,58,54,35,28,16,29.69,29.54,32,7,40,0.00
2013-7-1,109,97,85,66,58,47,53,29,13,29.74,29.62,48,15,56,0.00
2013-7-2,109,97,89,68,54,46,45,25,15,29.88,29.66,58,20,62,0.00
2013-7-3,110,99,92,55,48,44,23,18,13,29.72,29.55,62,26,64,0.00
2013-7-4,109,95,86,66,54,46,48,26,16,29.68,29.52,49,16,57,0.00
2013-7-5,100,91,80,68,58,46,53,34,23,29.68,29.57,30,8,32,0.00
2013-7-6,105,92,80,57,54,47,44,29,16,29.68,29.55,53,10,55,0.00
2013-7-7,110,97,84,56,45,35,33,18,10,29.66,29.56,50,15,55,0.00
2013-7-8,112,100,87,46,37,29,20,12,7,29.77,29.65,44,12,45,0.00
2013-7-9,104,94,83,72,58,29,68,35,10,29.93,29.74,31,9,36,0.00
2013-7-10,93,88,81,74,65,45,72,50,21,29.88,29.73,31,10,38,0.00
2013-7-11,91,85,81,68,60,52,63,44,34,29.88,29.75,28,10,33,0.00
2013-7-12,102,90,80,63,58,53,50,36,23,29.81,29.66,42,12,50,0.00
2013-7-13,105,94,81,62,54,45,38,27,17,29.80,29.65,41,11,45,0.00
2013-7-14,107,96,84,57,52,46,33,23,17,29.77,29.62,38,12,46,0.00
2013-7-15,106,95,85,53,46,37,28,19,13,29.68,29.57,59,19,62,0.00
2013-7-16,104,94,85,43,34,22,23,13,6,29.80,29.64,46,20,50,0.00
2013-7-17,101,91,79,42,30,20,22,13,6,29.89,29.77,43,11,44,0.00
2013-7-18,108,96,84,46,32,22,22,11,6,29.81,29.66,35,13,44,0.00
2013-7-19,99,91,84,74,61,32,62,39,13,29.80,29.63,26,8,34,0.00
2013-7-20,95,87,80,73,70,66,78,59,44,29.80,29.64,25,7,32,0.00
2013-7-21,89,83,76,74,70,63,87,67,45,29.83,29.68,40,8,54,0.17
2013-7-22,95,86,78,72,67,62,80,56,35,29.87,29.75,36,7,44,0.00
2013-7-23,102,90,79,65,62,58,58,41,26,29.86,29.71,48,15,56,0.00
2013-7-24,107,94,83,62,58,48,46,31,18,29.78,29.65,54,19,57,0.00
2013-7-25,100,92,83,68,59,53,44,33,25,29.86,29.71,38,12,52,0.00
2013-7-26,98,90,83,69,61,55,60,38,30,29.94,29.81,28,6,32,0.00
2013-7-27,105,94,84,62,60,54,45,33,22,29.84,29.65,48,14,57,0.00
2013-7-28,104,93,84,55,45,36,34,20,11,29.70,29.61,47,24,61,0.00
2013-7-29,103,90,77,52,41,26,33,20,9,29.83,29.68,36,15,43,0.00
2013-7-30,102,90,78,58,53,50,39,29,20,29.93,29.81,32,11,37,0.00
2013-7-31,104,90,79,60,52,39,41,29,12,29.90,29.75,45,13,50,0.00
2013-8-1,103,90,79,50,37,21,35,17,8,29.79,29.67,47,16,48,0.00
2013-8-2,102,88,76,53,42,28,38,22,10,29.77,29.68,41,14,45,0.00
2013-8-3,103,90,79,53,39,17,34,19,5,29.82,29.71,39,12,46,0.00
2013-8-4,105,92,80,52,43,31,34,20,8,29.82,29.71,38,14,46,0.00
2013-8-5,102,91,84,54,40,20,27,18,7,29.83,29.72,30,12,35,0.00
2013-8-6,103,90,79,49,40,24,27,18,8,29.85,29.75,40,14,52,0.00
2013-8-7,102,90,81,45,29,16,25,12,6,29.87,29.76,50,22,64,0.00
2013-8-8,100,90,81,44,27,5,25,12,4,29.79,29.70,42,20,50,0.00
2013-8-9,101,87,75,47,33,18,30,17,6,29.77,29.69,40,16,48,0.00
2013-8-10,100,87,76,48,38,23,33,19,8,29.83,29.75,51,17,52,0.00
2013-8-11,100,88,75,50,42,30,32,22,9,29.83,29.70,38,13,42,0.00
2013-8-12,104,91,78,51,42,32,31,20,9,29.80,29.69,33,12,46,0.00
2013-8-13,102,91,80,53,42,32,29,18,11,29.84,29.72,24,8,30,0.00
2013-8-14,104,93,83,58,45,36,36,20,13,29.83,29.67,24,7,29,0.00
2013-8-15,105,95,87,60,49,39,36,21,16,29.82,29.69,33,9,39,0.00
2013-8-16,110,98,87,57,52,47,29,22,15,29.79,29.67,37,13,45,0.00
2013-8-17,107,97,88,62,54,49,31,25,18,29.80,29.62,25,10,31,0.00
2013-8-18,106,97,89,61,56,52,31,26,20,29.77,29.63,42,11,49,0.00
2013-8-19,103,95,86,62,58,51,39,29,20,29.80,29.68,23,6,34,0.00
2013-8-20,106,95,84,62,54,42,39,27,12,29.77,29.64,34,11,43,0.00
2013-8-21,106,96,84,54,48,42,30,20,14,29.78,29.67,24,9,29,0.00
2013-8-22,105,95,87,68,58,44,48,30,19,29.79,29.64,32,8,37,0.00
2013-8-23,99,92,84,64,60,42,46,35,19,29.76,29.61,24,6,34,0.00
2013-8-24,94,85,78,74,66,43,74,54,21,29.83,29.67,38,10,58,0.01
2013-8-25,92,79,70,72,68,63,92,70,50,29.90,29.78,34,5,40,0.15
2013-8-26,82,78,73,74,72,69,95,82,69,29.93,29.79,23,3,27,0.15
2013-8-27,98,88,77,70,67,62,75,53,34,29.80,29.65,19,4,26,0.00
2013-8-28,104,94,83,72,63,59,59,38,26,29.81,29.66,33,6,43,0.00
2013-8-29,94,86,81,74,72,69,72,62,47,29.94,29.81,32,9,38,0.00
2013-8-30,93,86,80,76,72,69,86,67,48,29.96,29.83,24,7,33,0.00
2013-8-31,100,90,83,70,68,67,63,50,35,29.86,29.72,38,14,44,0.00
2013-9-1,102,91,82,68,65,61,61,44,27,29.80,29.67,35,16,43,0.00
2013-9-2,104,93,83,64,60,57,48,35,22,29.78,29.67,36,11,36,0.00
2013-9-3,102,93,84,64,61,55,45,35,23,29.80,29.69,35,8,44,0.00
2013-9-4,101,92,87,71,61,58,50,36,27,29.85,29.74,46,8,61,0.00
2013-9-5,106,94,86,62,59,53,40,31,20,29.80,29.72,33,7,50,0.00
2013-9-6,108,95,87,64,56,53,43,27,21,29.79,29.67,37,6,49,0.00
2013-9-7,92,86,80,70,66,61,63,51,40,29.85,29.75,35,7,39,0.00
2013-9-8,99,88,78,67,62,53,64,43,29,29.77,29.63,36,5,47,0.00
2013-9-9,97,88,78,69,56,49,69,36,22,29.72,29.56,49,11,56,0.00
2013-9-10,94,84,75,70,60,50,82,48,27,29.79,29.68,31,7,41,0.00
2013-9-11,96,86,75,58,50,42,36,29,21,29.85,29.74,26,8,32,0.00
2013-9-12,100,90,79,52,41,32,37,19,10,29.81,29.66,30,7,35,0.00
2013-9-13,103,93,82,48,40,35,21,16,11,29.70,29.53,23,6,28,0.00
2013-9-14,106,95,84,47,43,40,22,17,12,29.60,29.50,29,6,32,0.00
2013-9-15,105,96,88,50,45,41,24,18,14,29.65,29.56,27,9,34,0.00
2013-9-16,107,96,87,50,45,42,24,18,12,29.68,29.56,34,9,55,0.00
2013-9-17,103,91,81,45,38,28,24,16,8,29.63,29.51,42,15,57,0.00
2013-9-18,97,85,74,51,33,11,38,18,7,29.62,29.53,37,17,42,0.00
2013-9-19,100,88,76,55,38,27,38,19,9,29.69,29.60,26,8,30,0.00
2013-9-20,99,87,76,54,42,32,46,22,13,29.70,29.62,44,11,46,0.00
2013-9-21,90,77,68,54,47,34,57,37,15,29.73,29.59,57,23,65,0.00
2013-9-22,86,74,65,53,46,39,60,39,21,29.75,29.62,58,18,65,0.00
2013-9-23,95,83,70,47,33,29,43,17,11,29.83,29.75,22,4,26,0.00
2013-9-24,94,85,77,42,36,31,23,17,13,29.83,29.69,43,11,51,0.00
2013-9-25,90,81,68,42,34,27,39,19,13,29.69,29.50,51,25,61,0.00
2013-9-26,78,69,62,46,43,34,55,39,24,29.81,29.54,55,25,61,0.00
2013-9-27,84,74,63,42,26,20,43,18,10,29.96,29.80,45,10,58,0.00
2013-9-28,89,78,66,29,24,19,21,14,8,30.01,29.91,22,4,26,0.00
2013-9-29,92,81,72,37,25,20,22,13,8,30.00,29.86,22,7,29,0.00
2013-9-30,93,82,73,46,30,21,29,16,10,29.89,29.74,29,7,35,0.00
2013-10-1,90,81,71,49,41,34,32,24,19,29.84,29.73,30,6,36,0.00
2013-10-2,89,79,70,57,48,34,51,35,20,29.83,29.70,40,8,54,0.00
2013-10-3,84,73,64,54,48,23,62,42,16,29.78,29.64,54,21,56,0.00
2013-10-4,81,74,68,23,15,7,17,10,8,30.09,29.78,50,18,60,0.00
2013-10-5,86,75,64,23,17,6,19,12,5,30.20,30.05,32,7,40,0.00
2013-10-6,90,78,67,21,16,12,13,10,7,30.09,29.92,20,3,21,0.00
2013-10-7,89,80,71,38,19,9,25,11,6,29.94,29.78,31,7,39,0.00
2013-10-8,86,76,63,50,30,18,62,23,9,29.79,29.62,52,18,62,0.00
2013-10-9,67,61,53,48,44,40,77,54,39,29.73,29.60,61,22,78,0.07
2013-10-10,71,60,50,43,41,38,69,50,35,29.95,29.73,38,15,49,0.00
2013-10-11,78,67,56,43,40,38,61,38,25,30.00,29.87,15,3,20,0.00
2013-10-12,83,73,63,48,38,34,44,30,19,29.90,29.78,28,6,34,0.00
2013-10-13,80,72,65,48,41,32,51,34,20,29.92,29.79,38,17,45,0.00
2013-10-14,83,74,63,44,31,26,48,21,14,30.02,29.88,28,8,34,0.00
2013-10-15,83,74,63,32,27,22,27,18,12,29.99,29.85,32,9,47,0.00
2013-10-16,83,73,64,26,22,16,23,15,9,30.08,29.93,26,7,32,0.00
2013-10-17,84,74,65,34,22,16,26,14,10,30.01,29.83,16,4,20,0.00
2013-10-18,89,78,67,27,21,16,22,12,8,29.97,29.86,23,6,26,0.00
2013-10-19,90,80,71,30,21,17,16,12,7,29.98,29.86,22,4,26,0.00
2013-10-20,92,80,70,34,21,12,22,12,7,29.89,29.75,24,8,28,0.00
2013-10-21,89,78,69,30,19,10,15,11,8,29.91,29.81,16,6,20,0.00
2013-10-22,89,80,69,31,22,16,15,12,9,29.94,29.82,21,5,26,0.00
2013-10-23,90,78,67,50,30,20,51,20,9,29.83,29.74,24,7,27,0.00
2013-10-24,87,74,62,49,41,28,56,33,12,29.92,29.79,23,8,25,0.00
2013-10-25,88,78,68,46,30,21,45,18,10,29.99,29.92,19,4,23,0.00
2013-10-26,92,82,73,39,28,21,18,14,9,30.01,29.89,20,4,25,0.00
2013-10-27,90,79,65,46,33,27,49,20,11,29.90,29.61,48,13,55,0.00
2013-10-28,70,64,57,48,43,37,57,48,30,29.82,29.59,71,35,85,0.00
2013-10-29,68,61,56,43,39,35,56,46,31,29.92,29.82,48,23,54,0.00
2013-10-30,73,63,54,42,35,30,58,37,22,30.03,29.92,31,7,37,0.00
2013-10-31,78,67,58,33,29,26,32,25,15,30.11,29.98,16,3,17,0.00
2013-11-1,82,71,60,32,27,22,26,20,14,30.11,29.96,12,2,17,0.00
2013-11-2,82,72,63,36,30,25,27,21,15,30.00,29.77,36,6,42,0.00
2013-11-3,79,70,61,46,36,28,57,31,19,29.80,29.68,41,16,49,0.00
2013-11-4,72,64,58,46,43,36,62,48,35,29.87,29.66,43,20,50,0.00
2013-11-5,70,64,57,38,14,7,47,15,9,30.17,29.87,44,13,52,0.00
2013-11-6,78,66,54,13,7,1,15,10,5,30.27,30.15,15,2,19,0.00
2013-11-7,81,70,60,17,13,7,15,11,7,30.16,29.99,15,3,20,0.00
2013-11-8,82,72,62,24,16,11,16,12,8,30.00,29.88,21,4,23,0.00
2013-11-9,80,70,62,31,20,13,24,16,10,30.04,29.93,18,3,21,0.00
2013-11-10,82,71,63,29,21,15,19,15,11,30.08,29.99,14,2,20,0.00
2013-11-11,87,75,64,38,28,21,24,18,14,30.05,29.96,16,4,23,0.00
2013-11-12,87,79,70,31,27,21,21,15,11,30.11,30.01,12,1,14,0.00
2013-11-13,87,78,69,34,27,21,22,16,11,30.03,29.89,14,3,21,0.00
2013-11-14,85,75,67,34,23,17,18,14,10,29.93,29.68,18,3,18,0.00
2013-11-15,71,67,61,47,40,25,58,40,18,29.68,29.54,51,16,60,0.00
2013-11-16,68,62,58,46,44,40,63,52,44,29.85,29.63,49,23,59,0.00
2013-11-17,70,62,54,44,42,40,61,49,37,30.05,29.85,17,4,26,0.00
2013-11-18,71,62,57,45,43,41,60,50,39,30.09,30.02,13,2,16,0.00
2013-11-27,70,63,57,37,34,31,40,34,27,30.11,29.92,16,3,17,0.00
2013-11-28,69,61,53,35,32,30,42,34,26,30.06,29.93,18,4,18,0.00
2013-11-29,70,62,56,48,38,32,62,42,27,30.15,30.04,19,4,27,0.00
2013-11-30,76,66,57,41,36,28,54,34,25,30.17,30.05,15,3,20,0.00
2013-12-1,78,68,60,32,27,17,31,22,15,30.22,30.10,20,5,29,0.00
2013-12-2,74,65,58,35,23,17,34,21,14,30.12,29.80,15,2,17,0.00
2013-12-3,72,63,57,46,34,24,63,36,20,29.80,29.59,50,11,56,0.00
2013-12-4,61,55,46,47,26,16,61,34,21,29.94,29.58,58,17,74,0.00
2013-12-5,55,48,42,24,19,14,39,31,23,30.10,29.93,14,2,22,0.00
2013-12-6,55,48,41,30,25,20,51,41,33,30.19,30.07,22,3,24,0.00
2013-12-7,59,50,43,42,33,28,63,52,41,30.07,29.86,64,14,73,0.00
2013-12-8,56,48,45,34,25,9,56,40,22,30.21,30.01,27,12,36,0.00
2013-12-9,52,46,39,10,-1,-6,25,14,10,30.43,30.20,32,9,40,0.00
2013-12-10,59,48,38,4,-4,-8,17,11,7,30.41,30.17,9,2,12,0.00
2013-12-11,65,56,45,12,8,1,18,14,10,30.25,30.17,13,1,18,0.00
2013-12-12,69,58,51,41,23,9,47,27,15,30.22,30.06,23,2,32,0.00
2013-12-13,68,56,50,35,28,15,45,34,16,30.24,30.07,18,4,22,0.00
2013-12-14,69,62,58,21,18,15,22,18,14,30.35,30.21,47,11,72,0.00
2013-12-15,75,64,56,29,20,15,28,18,11,30.33,30.17,28,3,34,0.00
2013-12-16,76,68,60,26,21,17,21,17,13,30.20,30.10,12,2,14,0.00
2013-12-17,78,69,62,30,22,19,21,17,13,30.17,30.00,11,2,16,0.00
2013-12-18,75,66,58,39,26,20,48,22,15,29.99,29.71,22,3,36,0.00
2013-12-19,62,56,52,40,39,36,60,51,42,29.71,29.62,57,22,63,0.00
2013-12-20,67,58,51,37,32,24,53,39,23,29.86,29.66,48,14,61,0.00
2013-12-21,65,57,51,39,36,33,57,46,36,30.03,29.81,39,15,43,0.00
2013-12-22,66,58,49,40,36,28,61,44,32,30.28,30.02,18,2,22,0.00
2013-12-23,73,63,54,38,30,28,39,29,22,30.38,30.24,16,4,23,0.00
2013-12-24,78,67,56,35,30,28,35,26,17,30.24,30.10,26,4,39,0.00
2013-12-25,75,67,59,31,21,11,29,18,10,30.27,30.16,24,8,32,0.00
2013-12-26,75,66,57,12,6,0,14,10,6,30.24,30.11,17,4,31,0.00
2013-12-27,76,65,56,20,6,-4,16,10,5,30.19,30.06,14,3,16,0.00
2013-12-28,70,61,54,21,12,8,22,14,9,30.06,29.90,16,2,20,0.00
2013-12-29,68,63,55,18,10,3,21,13,9,30.16,29.97,47,9,47,0.00
2013-12-30,71,60,49,13,3,-1,14,10,6,30.26,30.15,13,3,15,0.00
2013-12-31,71,60,51,24,8,1,25,13,7,30.20,30.08,12,3,16,0.00
2014-1-1,75,64,53,17,9,4,15,12,8,30.15,30.06,11,2,16,0.00
2014-1-2,75,66,57,28,23,18,25,19,14,30.13,30.00,15,3,20,0.00